Tiempo atmosférico en la estación meteorológica de Fisterra, A Coruña (230 m.)



Fecha
DESCASC
Temp. máxima en grados centígrados (hora)
DESCASC
Temp. mínima en grados centígrados (hora)
DESCASC
Temp. media en grados centígrados
DESCASC
Racha de viento máxima en m/sg (hora)
DESCASC
Velocidad máxima media en intervalos de 10 minutos(hora)
DESCASC
Precipitaciones diarias en mm
DESCASC
Precipitaciones de 00:00 a 06:00 en mm
DESCASC
Precipitaciones de 06:00 a 12:00 en mm
DESCASC
Precipitaciones de 12:00 a 18:00 en mm
DESCASC
Precipitaciones de 18:00 a 24:00 en mm
DESCASC
29-10-2020 14.3 (17:10) 12.4 (20:00) 13.3 10.56 (12:50) 8.89 (19:30) 0 0 0 0 0
28-10-2020 17.8 (15:20) 12.7 (05:50) 15.2 11.39 (14:20) 8.61 (14:20) 0 0 0 0 0
27-10-2020 15.2 (15:50) 11.8 (00:00) 13.5 22.5 (12:40) 17.5 (12:40) 14.8 0 7.4 7.4 0
26-10-2020 14.7 (14:40) 9.7 (00:00) 12.2 15.56 (23:40) 10.28 (23:40) 1.2 0 0.6 0.6 0
25-10-2020 15.1 (00:00) 9 (00:00) 12.1 27.5 (02:10) 21.94 (02:00) 3.8 1.2 0.2 2 0.4
24-10-2020 15.4 (16:50) 14 (00:00) 14.7 29.72 (22:30) 23.61 (23:00) 10.8 1.8 0.2 0.6 8.2
23-10-2020 16.1 (14:30) 11.3 (00:00) 13.7 16.39 (22:50) 13.33 (22:40) 8.2 7.6 0.6 0 0
22-10-2020 17.2 (16:20) 11.5 (00:00) 14.4 21.39 (08:30) 11.67 (08:40) 14.2 0 6.4 0 7.8
21-10-2020 15.5 (17:00) 11.5 (00:00) 13.5 15.28 (22:20) 11.11 (00:30) 5.2 1.6 0.8 2.8 0
20-10-2020 15.1 (01:30) 13.4 (00:00) 14.3 20.28 (04:40) 11.67 (04:50) 6.4 0.8 0.6 2 3
19-10-2020 19.2 (02:50) 13.8 (00:00) 16.5 32.78 (14:10) 18.61 (14:10) 31 0 0 31 0
18-10-2020 17.8 (23:50) 13.3 (00:00) 15.5 18.61 (14:10) 10.56 (14:10) 1.8 0 1.8 0 0
17-10-2020 14.5 (18:10) 11.2 (00:00) 12.8 17.78 (10:20) 10.83 (06:00) 3.6 1.2 2.4 0 0
16-10-2020 16.7 (16:00) 9.7 (00:00) 13.2 10.83 (03:50) 7.5 (03:30) 0 0 0 0 0
15-10-2020 14.6 (15:30) 11.3 (00:00) 13 10.83 (14:10) 7.5 (01:20) 0.4 0.4 0 0 0
14-10-2020 14.2 (16:00) 10.5 (00:00) 12.3 16.39 (07:50) 9.17 (07:00) 1.6 0 0.6 1 0
13-10-2020 15.2 (02:30) 11.5 (00:00) 13.3 15 (14:50) 9.72 (05:30) 0.8 0.8 0 0 0
12-10-2020 15.4 (17:50) 11.8 (00:00) 13.6 11.67 (19:50) 8.61 (20:00) 0 0 0 0 0
11-10-2020 15.9 (14:40) 11.5 (00:00) 13.7 16.94 (18:50) 10.28 (18:50) 0 0 0 0 0
10-10-2020 17.1 (14:10) 12.3 (00:00) 14.7 19.17 (09:20) 10.83 (09:20) 0 0 0 0 0
09-10-2020 19 (15:30) 14.5 (00:00) 16.8 13.61 (23:20) 10.28 (23:20) 0 0 0 0 0
08-10-2020 17.4 (12:40) 14.6 (00:00) 16 10.28 (07:30) 8.33 (02:20) 0 0 0 0 0
07-10-2020 17.8 (13:40) 15.3 (00:00) 16.5 10.28 (00:30) 8.61 (00:10) 0.2 0.2 0 0 0
06-10-2020 16.9 (14:00) 15.6 (00:00) 16.3 11.94 (14:10) 10.28 (15:20) 1.8 0.6 0.4 0 0.8
05-10-2020 16.7 (21:50) 13.2 (00:00) 15 13.89 (15:10) 8.33 (21:40) -- -- -- -- --
04-10-2020 14.8 (17:30) 12.3 (00:00) 13.6 15.56 (15:00) 10.83 (15:00) 1.2 0.8 0 0.2 0.2
03-10-2020 16.5 (15:20) 11.6 (00:00) 14.1 23.61 (00:50) 14.17 (00:50) 0.6 0 0 0 0.6
02-10-2020 15.9 (00:40) 10.5 (00:00) 13.2 24.72 (13:10) 15 (00:40) 0.6 0 0.4 0.2 0
01-10-2020 18.9 (15:10) 12.7 (00:00) 15.8 25.28 (23:10) 19.44 (23:10) 6 0 0.2 0 5.8
30-09-2020 19.4 (14:20) 13.8 (00:00) 16.6 19.44 (22:50) 13.33 (22:50) 1 0 0 0 1

Gráficas

Temp. máximas Temp. mínimas Temp. medias Precipitaciones Rachas de viento máximas Velocidades máximas media en intervalos de 10 minutos

Datos horarios

Fecha y hora oficial Temperatura (ºC) Velocidad del viento (km/h) Dirección del viento Racha (km/h) Dirección de racha Precipitación (mm) Presión (hPa) Tendencia (hPa) Humedad (%)
2020-10-29 23:00:00 12.7 21 Sur 31 Sur 0 996.9 0.1 91
2020-10-29 22:00:00 12.7 23 Sur 36 Sudoeste 0 996.8 0.5 91
2020-10-29 21:00:00 12.4 26 Sudoeste 36 Sudoeste 0 996.8 0.6 91
2020-10-29 20:00:00 12.4 31 Sudoeste 38 Sudoeste 0 996.8 0.4 91
2020-10-29 19:00:00 12.6 31 Sudoeste 38 Sudoeste 0 996.3 -0.2 92
2020-10-29 18:00:00 13 18 Sur 33 Sudoeste 0 996.2 -0.9 92
2020-10-29 17:00:00 14.2 18 Sur 37 Sur 0 996.4 -1.3 91
2020-10-29 16:00:00 14.1 18 Sur 37 Sur 0 996.5 -1.6 90
2020-10-29 15:00:00 14.1 19 Sur 37 Sudoeste 0 997.1 -- 91
2020-10-29 14:00:00 14.1 21 Sur 35 Sur 0 997.7 -- 92
2020-10-29 13:00:00 13.5 24 Sur 38 Sudoeste 0 998.1 -- 93
2020-10-29 12:00:00 13.4 19 Sur 33 Sur 0 998.4 -- 95
2020-10-29 11:00:00 13.4 19 Sur 35 Sur 0 998.1 -- 96
2020-10-29 10:00:00 13.3 21 Sur 36 Sudoeste 0 997.6 -- 96
2020-10-29 09:00:00 12.9 16 Sur 33 Sur 0 997.1 -- 96
2020-10-29 08:00:00 12.7 19 Sur 31 Sur 0 996.6 -- 96
2020-10-29 07:00:00 12.8 19 Sur 28 Sur 0 996.6 -- 96
2020-10-29 06:00:00 13 16 Sur 28 Sudoeste 0 996.7 -- 95
2020-10-29 05:00:00 13.1 22 Sudoeste 29 Sudoeste 0 996.6 -- 94
2020-10-29 04:00:00 13.6 23 Sudoeste 30 Sudoeste 0 996.9 -- 94
2020-10-29 03:00:00 13.7 22 Sudoeste 28 Sudoeste 0 997 -- 94
2020-10-29 02:00:00 13.8 22 Sudoeste 28 Sudoeste 0 997.2 -- 93
2020-10-29 01:00:00 13.7 22 Sudoeste 30 Sudoeste 0 997.3 -- 93
2020-10-29 00:00:00 13.6 22 Sudoeste 32 Sudoeste 0 997.3 -- 93
2020-10-28 23:00:00 13.7 23 Sudoeste 31 Sudoeste 0 997 -- 93
2020-10-28 22:00:00 13.3 23 Sudoeste 28 Sudoeste 0 996.8 -- 93
2020-10-28 21:00:00 12.9 22 Sudoeste 29 Sudoeste 0 996.7 -- 92
2020-10-28 20:00:00 13.4 23 Sudoeste 29 Sudoeste 0 996.5 -- 89
2020-10-28 19:00:00 13.5 20 Sudoeste 28 Oeste 0 995.9 -- 87
2020-10-28 18:00:00 13.8 17 Sudoeste 32 Sudoeste 0 995.6 -- 84
2020-10-28 17:00:00 16 21 Sudoeste 26 Sudoeste 0 995.6 -- 79
2020-10-28 16:00:00 17.4 21 Sudoeste 27 Sudoeste 0 995.2 -- 75
2020-10-28 15:00:00 17.1 23 Sudoeste 41 Sudoeste 0 994.8 -- 77
2020-10-28 14:00:00 17.1 24 Sudoeste 33 Sudoeste 0 994.9 -- 78
2020-10-28 13:00:00 16.8 21 Sudoeste 27 Sudoeste 0 995.1 -- 82
2020-10-28 12:00:00 15.4 23 Sudoeste 33 Sudoeste 0 994.9 -- 84
2020-10-28 11:00:00 14.6 20 Sudoeste 31 Sudoeste 0 994.2 -- 87
2020-10-28 10:00:00 13.6 24 Sudoeste 36 Oeste 0 993.6 -- 87
2020-10-28 09:00:00 13.1 23 Oeste 29 Oeste 0 992.9 -- 91
2020-10-28 08:00:00 12.8 22 Oeste 36 Oeste 0 992 -- 91
2020-10-28 07:00:00 12.9 22 Sudoeste 32 Sudoeste 0 991.5 -- 91
2020-10-28 06:00:00 12.8 20 Sudoeste 25 Oeste 0 991 -- 88
2020-10-28 05:00:00 13.4 22 Oeste 27 Oeste 0 990.7 -- 80
2020-10-28 04:00:00 13.4 21 Oeste 25 Oeste 0 990.7 -- 77
2020-10-28 03:00:00 13.4 23 Oeste 32 Oeste 0 990.6 -- 73
2020-10-28 02:00:00 13.2 26 Oeste 37 Noroeste 0 990.3 -- 77
2020-10-28 01:00:00 13.3 22 Noroeste 36 Oeste 0 990.6 -- 90
2020-10-28 00:00:00 13.6 20 Oeste 36 Oeste 0 990.4 -- 87
2020-10-27 23:00:00 13.6 24 Oeste 37 Oeste 0 989.9 -- 86
2020-10-27 22:00:00 14.1 26 Oeste 36 Oeste 0 989.8 -- 91
2020-10-27 21:00:00 14.1 23 Oeste 35 Oeste 0 989.1 -- 95
2020-10-27 20:00:00 14.1 25 Oeste 31 Oeste 0 988.4 -- 92
2020-10-27 19:00:00 13.9 25 Oeste 49 Oeste 0 987.9 -- 92
2020-10-27 18:00:00 13.9 26 Oeste 34 Oeste 0.2 987.5 -- 94
2020-10-27 17:00:00 13.1 19 Noroeste 40 Noroeste 0 986.9 -- 97
2020-10-27 16:00:00 14.2 30 Noroeste 70 Sudoeste 2.2 986.5 -- 97
2020-10-27 15:00:00 15 56 Sudoeste 76 Sudoeste 1.4 985.5 -- 97
2020-10-27 14:00:00 14.7 61 Sudoeste 77 Sudoeste 1.8 985.9 -- 97
2020-10-27 13:00:00 14.5 63 Sudoeste 81 Sudoeste 1.8 986.3 -- 97
2020-10-27 12:00:00 14.2 58 Sudoeste 78 Sudoeste 2 986.9 -- 97
2020-10-27 11:00:00 14.1 60 Sudoeste 74 Sudoeste 1.8 986.8 -- 96
2020-10-27 10:00:00 14.1 57 Sudoeste 71 Sudoeste 2.8 987.5 -- 96
2020-10-27 09:00:00 13.7 53 Sudoeste 71 Sudoeste 0.8 987.3 -- 96
2020-10-27 08:00:00 13.5 54 Sudoeste 70 Sudoeste 0 987.1 -- 95
2020-10-27 07:00:00 13.6 50 Sudoeste 65 Sudoeste 0 987.8 -- 94
2020-10-27 06:00:00 13.4 52 Sudoeste 66 Sudoeste 0 988.1 -- 92
2020-10-27 05:00:00 13.1 51 Sudoeste 67 Sudoeste 0 988.3 -- 91
2020-10-27 04:00:00 12.6 48 Sudoeste 67 Sudoeste 0 989 -- 92
2020-10-27 03:00:00 12.3 44 Sudoeste 59 Sudoeste 0 989.7 -- 91
2020-10-27 02:00:00 12.6 41 Sudoeste 56 Sudoeste 0 990.3 -- 87
2020-10-27 01:00:00 12.1 39 Sudoeste 56 Oeste 0 990.8 -- 89
2020-10-27 00:00:00 12.1 36 Sudoeste 56 Oeste 0 991.3 -- 88
2020-10-26 23:00:00 12.4 33 Sudoeste 44 Sudoeste 0 991.7 -- 86
2020-10-26 22:00:00 12.4 33 Sudoeste 45 Sudoeste 0 991.8 -- 85
2020-10-26 21:00:00 12.3 25 Oeste 34 Oeste 0 992.1 -- 82
2020-10-26 20:00:00 12.2 23 Oeste 31 Oeste 0 992.3 -- 84
2020-10-26 19:00:00 11.9 18 Oeste 36 Oeste 0 992.2 -- 87
2020-10-26 18:00:00 12.2 21 Oeste 31 Oeste 0 992.3 -- 82
2020-10-26 17:00:00 12.1 17 Oeste 45 Oeste 0.4 992.4 -- 85
2020-10-26 16:00:00 12.8 15 Noroeste 28 Noroeste 0 992.4 -- 75
2020-10-26 15:00:00 11.8 15 Noroeste 46 Noroeste 0.2 992.5 -- 87
2020-10-26 14:00:00 14.1 21 Oeste 34 Oeste 0 992.7 -- 71
2020-10-26 13:00:00 13.6 16 Noroeste 37 Noroeste 0 993 -- 70
2020-10-26 12:00:00 13.3 16 Oeste 27 Norte 0 993.1 -- 77
2020-10-26 11:00:00 12.5 10 Noroeste 30 Noroeste 0 992.8 -- 79
2020-10-26 10:00:00 11.8 15 Noroeste 32 Noroeste 0 992.6 -- 74
2020-10-26 09:00:00 11.2 17 Noroeste 39 Noroeste 0.6 991.8 -- 77
2020-10-26 08:00:00 11.3 22 Noroeste 45 Noroeste 0 990.9 -- 74
2020-10-26 07:00:00 10.6 6 Noroeste 35 Norte 0 990.5 -- 84
2020-10-26 06:00:00 11.2 9 Noroeste 39 Noroeste 0 989.6 -- 79
2020-10-26 05:00:00 11.5 16 Noroeste 41 Norte 0 989.2 -- 75
2020-10-26 04:00:00 10.9 27 Norte 49 Noroeste 0 988.7 -- 76
2020-10-26 03:00:00 11.2 14 Noroeste 39 Noroeste 0 988.4 -- 77
2020-10-26 02:00:00 10.9 17 Noroeste 40 Noroeste 0 988 -- 82
2020-10-26 01:00:00 10.7 15 Noroeste 42 Noroeste 0 987.5 -- 75
2020-10-26 00:00:00 9.7 29 Norte 96 Norte 0 987.4 -- 83
2020-10-25 23:00:00 10.7 35 Noroeste 81 Norte 0 986 -- 79
2020-10-25 22:00:00 11.1 36 Noroeste 67 Noroeste 0 985.8 -- 81
2020-10-25 21:00:00 11 29 Oeste 54 Oeste 0.4 985.3 -- 81
2020-10-25 20:00:00 11.1 22 Noroeste 46 Noroeste 0 985.5 -- 79
2020-10-25 19:00:00 10.7 33 Noroeste 66 Noroeste 0 984.8 -- 76
2020-10-25 18:00:00 10.4 24 Noroeste 47 Noroeste 2 984.3 -- 78
2020-10-25 17:00:00 13.1 26 Noroeste 71 Noroeste 0 984.1 -- 70
2020-10-25 16:00:00 13.1 30 Oeste 46 Oeste 0 983.9 -- 68
2020-10-25 15:00:00 13.3 25 Noroeste 68 Noroeste 0 983.8 -- 68
2020-10-25 14:00:00 12.9 33 Oeste 59 Oeste 0 983.8 -- 64
2020-10-25 13:00:00 12.6 29 Noroeste 53 Oeste 0 984 -- 71
2020-10-25 12:00:00 11.8 33 Oeste 70 Noroeste 0 983.9 -- 80
2020-10-25 11:00:00 12.5 43 Oeste 60 Oeste 0 983.5 -- 78
2020-10-25 10:00:00 11.1 25 Oeste 48 Noroeste 0 983.5 -- 89
2020-10-25 09:00:00 10.4 35 Noroeste 73 Noroeste 0.2 983.2 -- 89
2020-10-25 08:00:00 12.3 25 Noroeste 69 Noroeste 0 982.2 -- 89
2020-10-25 07:00:00 11.9 46 Noroeste 75 Noroeste 0 981.5 -- 91
2020-10-25 06:00:00 12.9 33 Oeste 55 Oeste 0 982.5 -- 90
2020-10-25 05:00:00 13.5 35 Oeste 45 Oeste 0 982.4 -- 85
2020-10-25 04:00:00 13.5 31 Oeste 52 Oeste 0 982.5 -- 90
2020-10-25 03:00:00 13.5 44 Oeste 61 Oeste 0 982.9 -- 96
2020-10-25 02:00:00 13.5 48 Oeste 99 Oeste 0.4 982.9 -- 96
2020-10-25 01:00:00 14.8 50 Oeste 73 Sudoeste 0.4 983.4 -- 98
2020-10-25 00:00:00 15.1 53 Sudoeste 104 Sudoeste 1.6 983.5 -- 98
2020-10-24 23:00:00 15.1 85 Sudoeste 107 Sudoeste 0.6 982.8 -- 97
2020-10-24 22:00:00 14.9 74 Sudoeste 99 Sudoeste 4 983.6 -- 97
2020-10-24 21:00:00 15.1 78 Sudoeste 100 Sudoeste 0.8 984.4 -- 97
2020-10-24 20:00:00 15 75 Sudoeste 90 Sudoeste 0 984.9 -- 97
2020-10-24 19:00:00 14.7 75 Sudoeste 99 Sudoeste 1.2 985.1 -- 97
2020-10-24 18:00:00 14.8 69 Sudoeste 94 Sudoeste 0 986.3 -- 97
2020-10-24 17:00:00 15.3 76 Sudoeste 98 Sudoeste 0 987 -- 97
2020-10-24 16:00:00 15 69 Sudoeste 94 Sudoeste 0 987.8 -- 97
2020-10-24 15:00:00 15.1 70 Sudoeste 90 Sudoeste 0 988.3 -- 97
2020-10-24 14:00:00 15.1 67 Sudoeste 89 Sudoeste 0.6 989.2 -- 97
2020-10-24 13:00:00 15 64 Sudoeste 85 Sudoeste 0 990.1 -- 97
2020-10-24 12:00:00 14.8 59 Sudoeste 82 Sudoeste 0 990.4 -- 97
2020-10-24 11:00:00 14.5 60 Sudoeste 78 Sudoeste 0 991 -- 97
2020-10-24 10:00:00 14.6 57 Sudoeste 75 Sudoeste 0 991.4 -- 97
2020-10-24 09:00:00 14.4 57 Sudoeste 71 Sudoeste 0 991.2 -- 97
2020-10-24 08:00:00 14.4 57 Sudoeste 71 Sudoeste 0 991.7 -- 97
2020-10-24 07:00:00 14.5 53 Sudoeste 68 Sudoeste 0.2 992 -- 97
2020-10-24 06:00:00 14.4 55 Sudoeste 69 Sudoeste 0.4 992.4 -- 97
2020-10-24 05:00:00 14.3 54 Sudoeste 71 Sudoeste 0.6 992.8 -- 97
2020-10-24 04:00:00 14.1 50 Sudoeste 66 Sudoeste 0.8 993.7 -- 96
2020-10-24 03:00:00 14.3 51 Sudoeste 69 Sudoeste 0 993.9 -- 96
2020-10-24 02:00:00 14.3 51 Sudoeste 64 Sudoeste 0 994.4 -- 95
2020-10-24 01:00:00 14.2 49 Sudoeste 59 Sudoeste 0 994.8 -- 95
2020-10-24 00:00:00 14.2 48 Sudoeste 58 Sudoeste 0 994.9 -- 95
2020-10-23 23:00:00 14 46 Sudoeste 59 Sudoeste 0 994.5 -- 94
2020-10-23 22:00:00 14 44 Sudoeste 56 Sudoeste 0 994.6 -- 92
2020-10-23 21:00:00 13.9 43 Sudoeste 50 Sudoeste 0 994.6 -- 92
2020-10-23 20:00:00 13.8 39 Sudoeste 48 Sudoeste 0 994.4 -- 91
2020-10-23 19:00:00 13.9 39 Sudoeste 46 Sudoeste 0 994.4 -- 88
2020-10-23 18:00:00 14.3 37 Sudoeste 46 Sudoeste 0 994.4 -- 84
2020-10-23 17:00:00 14.6 30 Sudoeste 38 Sudoeste 0 994.3 -- 83
2020-10-23 16:00:00 14.8 30 Sudoeste 36 Sudoeste 0 994.3 -- 83
2020-10-23 15:00:00 15.8 27 Sudoeste 34 Sudoeste 0 994.1 -- 82
2020-10-23 14:00:00 16 25 Sudoeste 34 Sudoeste 0 994.3 -- 86
2020-10-23 13:00:00 14 19 Sur 32 Sur 0 994.3 -- 90
2020-10-23 12:00:00 14 17 Sur 30 Sur 0 994 -- 90
2020-10-23 11:00:00 12.9 14 Sur 21 Sur 0 993.6 -- 86
2020-10-23 10:00:00 11.9 9 Sudoeste 17 Oeste 0 992.7 -- 86
2020-10-23 09:00:00 11.8 9 Oeste 23 Norte 0 991.7 -- 81
2020-10-23 08:00:00 11.7 16 Norte 36 Noroeste 0.6 991.1 -- 87
2020-10-23 07:00:00 11.9 12 Noroeste 27 Norte 0 990.7 -- 93
2020-10-23 06:00:00 12.3 9 Noroeste 27 Noroeste 0 989.9 -- 93
2020-10-23 05:00:00 12.1 15 Norte 26 Norte 1.4 989.5 -- 92
2020-10-23 04:00:00 12 6 Oeste 22 Sudoeste 2.4 989.4 -- 96
2020-10-23 03:00:00 12.2 13 Norte 19 Norte 2.2 989.1 -- 95
2020-10-23 02:00:00 12 12 Norte 24 Norte 0.4 988.7 -- 96
2020-10-23 01:00:00 11.8 12 Noroeste 38 Oeste 1.2 988.2 -- 96
2020-10-23 00:00:00 12.4 15 Noroeste 37 Oeste 5.2 987.5 -- 95
2020-10-22 23:00:00 12 21 Oeste 40 Noroeste 2.6 987 -- 92
2020-10-22 22:00:00 13 12 Noroeste 24 Noroeste 0 986.4 -- 88
2020-10-22 21:00:00 12.6 14 Noroeste 31 Noroeste 0 985.7 -- 89
2020-10-22 20:00:00 13.6 24 Oeste 29 Oeste 0 985 -- 87
2020-10-22 19:00:00 14.7 22 Sudoeste 32 Sudoeste 0 984.3 -- 85
2020-10-22 18:00:00 16.1 24 Sudoeste 32 Sudoeste 0 983.8 -- 82
2020-10-22 17:00:00 16.6 27 Sudoeste 32 Sudoeste 0 983.4 -- 82
2020-10-22 16:00:00 16.9 27 Sudoeste 35 Sudoeste 0 983.1 -- 85
2020-10-22 15:00:00 15.6 26 Sudoeste 40 Sudoeste 0 982.8 -- 90
2020-10-22 14:00:00 15 22 Sur 44 Sudoeste 0 982.9 -- 91
2020-10-22 13:00:00 14.2 23 Sur 49 Sudoeste 0 982.7 -- 94
2020-10-22 12:00:00 13.1 22 Sur 44 Sudoeste 0.2 982.4 -- 95
2020-10-22 11:00:00 12.3 28 Sur 50 Sudoeste 0 982 -- 95
2020-10-22 10:00:00 12.1 22 Sur 44 Sudoeste 0 981.2 -- 96
2020-10-22 09:00:00 11.5 30 Sur 77 Sudoeste 2.8 980.3 -- 96
2020-10-22 08:00:00 11.8 22 Oeste 65 Oeste 3.4 980 -- 93
2020-10-22 07:00:00 13.2 27 Sur 48 Sudoeste 0 979.6 -- 97
2020-10-22 06:00:00 13.3 28 Sur 51 Sur 0 979.1 -- 97
2020-10-22 05:00:00 13.5 23 Sur 49 Sur 0 979.2 -- 96
2020-10-22 04:00:00 13.1 23 Sur 46 Sur 0 979.6 -- 94
2020-10-22 03:00:00 13.5 24 Sur 46 Sudoeste 0 979.6 -- 95
2020-10-22 02:00:00 12.5 35 Sur 55 Sudoeste 0 979.3 -- 90
2020-10-22 01:00:00 13.5 27 Sur 51 Sudoeste 0 979.7 -- 95
2020-10-22 00:00:00 13.4 26 Sur 54 Sudoeste 0 979.5 -- 93
2020-10-21 23:00:00 13.3 28 Sur 55 Sur 0 979 -- 93
2020-10-21 22:00:00 13.2 23 Sur 46 Sur 0 978.8 -- 93
2020-10-21 21:00:00 13.3 27 Sur 45 Sudoeste 0 978.6 -- 92
2020-10-21 20:00:00 13.3 30 Sur 41 Sudoeste 0 978.3 -- 92
2020-10-21 19:00:00 14.2 24 Sur 40 Sudoeste 0 977.7 -- 88
2020-10-21 18:00:00 15 27 Sudoeste 39 Sudoeste 0 977.4 -- 89
2020-10-21 17:00:00 15.4 29 Sudoeste 52 Sudoeste 0.8 977.1 -- 94
2020-10-21 16:00:00 13.2 24 Sudoeste 39 Sudoeste 1.6 976.8 -- 95
2020-10-21 15:00:00 12.9 22 Sudoeste 39 Sudoeste 0 976.9 -- 92
2020-10-21 14:00:00 13.3 21 Sudoeste 43 Oeste 0.2 976.9 -- 94
2020-10-21 13:00:00 14 22 Sudoeste 34 Sudoeste 0.2 977 -- 92
2020-10-21 12:00:00 13.5 14 Sur 31 Sudoeste 0 976.3 -- 91
2020-10-21 11:00:00 12.9 21 Sur 32 Sudoeste 0 975.9 -- 93
2020-10-21 10:00:00 12.2 26 Sudoeste 33 Sudoeste 0 975.2 -- 93
2020-10-21 09:00:00 12.8 25 Sudoeste 34 Sudoeste 0 974.3 -- 96
2020-10-21 08:00:00 12.2 15 Sudoeste 24 Sudoeste 0 973.6 -- 95
2020-10-21 07:00:00 12.3 10 Sudoeste 19 Noroeste 0.8 973 -- 96
2020-10-21 06:00:00 11.9 15 Noroeste 32 Oeste 0.6 971.8 -- 95
2020-10-21 05:00:00 12.4 14 Oeste 27 Noroeste 0 971.1 -- 97
2020-10-21 04:00:00 12 17 Noroeste 33 Noroeste 0.4 970.4 -- 97
2020-10-21 03:00:00 12.9 22 Noroeste 39 Oeste 0 969.4 -- 96
2020-10-21 02:00:00 13.6 31 Oeste 41 Sudoeste 0.2 968.5 -- 97
2020-10-21 01:00:00 13.7 34 Sudoeste 51 Sudoeste 0.4 967.8 -- 97
2020-10-21 00:00:00 13.8 34 Sudoeste 53 Sur 2.8 967.3 -- 97
2020-10-20 23:00:00 13.7 27 Sur 49 Sur 0 966.7 -- 97
2020-10-20 22:00:00 13.9 27 Sur 48 Sur 0 966.9 -- 97
2020-10-20 21:00:00 13.7 22 Sur 39 Sur 0 967.3 -- 96
2020-10-20 20:00:00 13.7 23 Sur 45 Sur 0.2 967 -- 94
2020-10-20 19:00:00 13.8 27 Sur 52 Sur 0 967.2 -- 91
2020-10-20 18:00:00 13.9 27 Sur 52 Sur 1.6 968.1 -- 94
2020-10-20 17:00:00 14.1 27 Sur 60 Sur 0.2 968.6 -- 96
2020-10-20 16:00:00 14.4 35 Sur 71 Sur 0 969 -- 98
2020-10-20 15:00:00 14.6 41 Sur 67 Sur 0.2 970.2 -- 98
2020-10-20 14:00:00 14.8 38 Sur 68 Sur 0 971.6 -- 98
2020-10-20 13:00:00 14.8 37 Sur 61 Sur 0 972.5 -- 98
2020-10-20 12:00:00 14.6 35 Sur 67 Sur 0 973.2 -- 98
2020-10-20 11:00:00 14.3 34 Sur 68 Sur 0 974 -- 98
2020-10-20 10:00:00 14.1 36 Sur 67 Sur 0.2 974 -- 98
2020-10-20 09:00:00 13.9 31 Sur 64 Sur 0.2 974.5 -1.3 98
2020-10-20 08:00:00 14.3 35 Sur 58 Sur 0 974.3 -- 98
2020-10-20 07:00:00 14.6 32 Sur 62 Sur 0.2 975.1 -- 98
2020-10-20 06:00:00 14.6 34 Sur 57 Sudoeste 0 975.8 -0.8 98
2020-10-20 05:00:00 13.5 37 Sudoeste 73 Sudoeste 0.6 976 -1.3 97
2020-10-20 04:00:00 15 33 Sur 58 Sur 0 976.4 -- 97
2020-10-20 03:00:00 14.8 33 Sur 58 Sudoeste 0 976.6 -1.7 97
2020-10-20 02:00:00 15 35 Sur 56 Sudoeste 0.2 977.3 -0.9 97
2020-10-20 01:00:00 14.9 37 Sur 55 Sudoeste 0 977.9 -- 97
2020-10-20 00:00:00 14.9 38 Sudoeste 52 Sudoeste 0 978.3 0.3 97
2020-10-19 23:00:00 15 36 Sur 53 Sudoeste 0 978.2 0.4 97
2020-10-19 22:00:00 15 36 Sur 54 Sudoeste 0 977.8 -- 97
2020-10-19 21:00:00 15 34 Sur 46 Sudoeste 0 978 -- 97
2020-10-19 20:00:00 15 36 Sudoeste 51 Sudoeste 0 977.8 1.5 97
2020-10-19 19:00:00 14.9 26 Oeste 47 Sudoeste 0 976.9 -- 97
2020-10-19 18:00:00 14.6 33 Sur 55 Sur 2.2 975.4 -- 97
2020-10-19 17:00:00 13.9 39 Sudoeste 69 Sudoeste 7.6 976.3 -- 97
2020-10-19 16:00:00 14.4 50 Sudoeste 108 Sur 15.6 976.6 -- 97
2020-10-19 15:00:00 14.3 54 Sur 118 Sur 1.8 974.8 -- 95
2020-10-19 14:00:00 14.1 63 Sur 117 Sur 3.8 975 -- 95
2020-10-19 13:00:00 15.3 60 Sur 113 Sur 0 975.8 -- 80
2020-10-19 12:00:00 15.9 54 Sur 108 Sur 0 976.1 -- 74
2020-10-19 11:00:00 15.5 50 Sur 111 Sur 0 977.1 -- 78
2020-10-19 10:00:00 15.2 53 Sur 106 Sur 0 977.9 -- 78
2020-10-19 09:00:00 15.2 46 Sur 91 Sur 0 978.5 -- 71
2020-10-19 08:00:00 15.1 40 Sur 78 Sur 0 978.9 -- 74
2020-10-19 07:00:00 14.7 42 Sur 77 Sur 0 979.9 -- 81
2020-10-19 06:00:00 15.3 38 Sur 74 Sur 0 981.1 -- 74
2020-10-19 05:00:00 17.6 36 Sur 72 Sur 0 981.4 -- 44
2020-10-19 04:00:00 18.9 37 Sudeste 57 Sur 0 982.1 -- 35
2020-10-19 03:00:00 19.1 29 Sudeste 54 Sudeste 0 983 -- 37
2020-10-19 02:00:00 18.5 20 Sudeste 45 Sudeste 0 984 -- 45
2020-10-19 01:00:00 18.3 10 Sudeste 27 Sur 0 985.5 -- 48
2020-10-19 00:00:00 17.7 5 Sudeste 21 Sur 0 986.4 -- 48
2020-10-18 23:00:00 16.7 7 Sudeste 29 Sudeste 0 986.7 -- 48
2020-10-18 22:00:00 17.1 22 Sur 37 Sudeste 0 987.3 -- 44
2020-10-18 21:00:00 16.6 28 Sur 42 Sur 0 987.7 -- 49
2020-10-18 20:00:00 15.9 27 Sur 46 Sur 0 987.8 -- 59
2020-10-18 19:00:00 15.9 27 Sur 45 Sur 0 987.7 -- 63
2020-10-18 18:00:00 16.4 21 Sur 43 Sur 0 988 -- 72
2020-10-18 17:00:00 17.5 26 Sur 52 Sur 0 988.6 -- 73
2020-10-18 16:00:00 16.9 28 Sur 54 Sur 0 989 -- 80
2020-10-18 15:00:00 15.7 35 Sur 67 Sur 0 989.5 -- 87
2020-10-18 14:00:00 16 37 Sur 65 Sur 0 989.8 -- 85
2020-10-18 13:00:00 15.3 30 Sur 52 Sur 0 990.3 -- 90
2020-10-18 12:00:00 15.2 26 Sur 53 Sur 0 990.3 -- 89
2020-10-18 11:00:00 14.8 27 Sur 45 Sur 0 989.9 -- 95
2020-10-18 10:00:00 14 27 Sur 49 Sur 0 989.5 -- 97
2020-10-18 09:00:00 14.1 27 Sur 50 Sur 0 989 -- 97
2020-10-18 08:00:00 13.9 24 Sur 45 Sur 0.6 988.6 -- 97
2020-10-18 07:00:00 13.9 27 Sur 46 Sur 1.2 988.5 -- 96
2020-10-18 06:00:00 14.2 31 Sur 51 Sur 0 988.7 -- 95
2020-10-18 05:00:00 14.2 27 Sur 46 Sur 0 988.5 -- 92
2020-10-18 04:00:00 14.1 24 Sur 46 Sur 0 988.8 -- 90
2020-10-18 03:00:00 14.8 22 Sur 44 Sur 0 988.9 -- 87
2020-10-18 02:00:00 14.6 24 Sur 44 Sur 0 988.7 -- 89
2020-10-18 01:00:00 13.9 24 Sur 43 Sur 0 988.7 -- 93
2020-10-18 00:00:00 13.3 22 Sur 48 Sur 0 989 -- 96
2020-10-17 23:00:00 13.3 22 Sur 45 Sur 0 989 -- 95
2020-10-17 22:00:00 12.8 23 Sur 47 Sur 0 989.2 -- 96
2020-10-17 21:00:00 12.8 27 Sur 45 Sur 0 989.3 -- 95
2020-10-17 20:00:00 12.9 24 Sur 43 Sur 0 989 -- 94
2020-10-17 19:00:00 13.7 24 Sur 42 Sur 0 988.8 -- 91
2020-10-17 18:00:00 14.4 24 Sur 44 Sur 0 988.7 -- 90
2020-10-17 17:00:00 13.4 22 Sur 47 Sur 0 988.5 -- 94
2020-10-17 16:00:00 12.4 25 Sur 50 Sur 0 988.5 -- 96
2020-10-17 15:00:00 12.5 27 Sur 55 Sur 0 988.4 -- 97
2020-10-17 14:00:00 12.6 30 Sur 50 Sur 0 988.3 -- 97
2020-10-17 13:00:00 12.4 26 Sur 48 Sur 0 988.1 -- 97
2020-10-17 12:00:00 12.2 25 Sur 54 Sudoeste 0.2 987.8 -- 97
2020-10-17 11:00:00 12.1 31 Sur 64 Sur 0.4 987.3 -- 97
2020-10-17 10:00:00 11.6 29 Sur 53 Sur 1.4 986.7 -- 96
2020-10-17 09:00:00 11.4 31 Sur 58 Sudoeste 0.4 986.2 -- 95
2020-10-17 08:00:00 11.9 33 Sur 60 Sur 0 986 -- 92
2020-10-17 07:00:00 11.4 36 Sur 61 Sur 0 986 -- 91
2020-10-17 06:00:00 11.4 39 Sur 58 Sur 0 985.6 -- 92
2020-10-17 05:00:00 11.2 31 Sur 54 Sur 1.2 986 -- 93
2020-10-17 04:00:00 11.7 33 Sur 58 Sur 0 986.5 -- 89
2020-10-17 03:00:00 11.8 30 Sur 51 Sur 0 986.8 -- 89
2020-10-17 02:00:00 11.6 31 Sur 48 Sur 0 987 -- 93
2020-10-17 01:00:00 11.8 28 Sur 44 Sur 0 987.8 -- 92
2020-10-17 00:00:00 11.8 25 Sur 37 Sur 0 988.5 -- 89
2020-10-16 23:00:00 12.1 21 Sur 31 Sur 0 988.9 -- 86
2020-10-16 22:00:00 12.2 21 Sur 27 Sur 0 989.3 -- 80
2020-10-16 21:00:00 12.1 17 Sur 24 Sudoeste 0 989.6 -- 82
2020-10-16 20:00:00 12.4 19 Sudoeste 23 Sudoeste 0 989.5 -- 86
2020-10-16 19:00:00 13 14 Sur 22 Sur 0 989.5 -- 83
2020-10-16 18:00:00 14.6 14 Sur 28 Sudoeste 0 989.7 -- 75
2020-10-16 17:00:00 16.3 17 Sur 27 Sudoeste 0 990.2 -- 67
2020-10-16 16:00:00 16.7 16 Sur 26 Sur 0 990.5 -- 68
2020-10-16 15:00:00 15.5 13 Sur 25 Sudoeste 0 991.2 -- 69
2020-10-16 14:00:00 14.9 15 Sur 27 Sur 0 991.6 -- 67
2020-10-16 13:00:00 13.9 15 Sur 32 Sur 0 991.7 -- 66
2020-10-16 12:00:00 13 18 Sur 27 Sur 0 991.8 -- 64
2020-10-16 11:00:00 12 18 Sur 26 Sur 0 991.8 0.5 66
2020-10-16 10:00:00 11.5 14 Sudeste 18 Sudeste 0 991.5 0.1 68
2020-10-16 09:00:00 10 14 Sur 19 Sur 0 991.3 -0.3 70
2020-10-16 08:00:00 10.1 7 Sudeste 18 Sudeste 0 991.3 -- 64
2020-10-16 07:00:00 10.3 9 Sudeste 17 Sudeste 0 991.4 -- 63
2020-10-16 06:00:00 9.8 6 Este 26 Este 0 991.6 -- 64
2020-10-16 05:00:00 10.2 21 Este 33 Este 0 991.9 -- 64
2020-10-16 04:00:00 10.4 23 Este 39 Este 0 992.5 -- 66
2020-10-16 03:00:00 10.5 22 Este 32 Este 0 993.1 -- 67
2020-10-16 02:00:00 10.4 18 Este 36 Este 0 993.7 -- 69
2020-10-16 01:00:00 11 19 Este 31 Este 0 994 -- 66
2020-10-16 00:00:00 11.4 19 Este 29 Este 0 994.1 -- 67
2020-10-15 23:00:00 11.6 19 Este 35 Nordeste 0 994 -- 73
2020-10-15 22:00:00 11.5 20 Nordeste 36 Nordeste 0 993.7 -- 79
2020-10-15 21:00:00 11.9 16 Nordeste 29 Nordeste 0 993.9 -- 77
2020-10-15 20:00:00 12.2 21 Nordeste 32 Nordeste 0 993.2 -- 75
2020-10-15 19:00:00 13.7 17 Nordeste 32 Nordeste 0 993.3 -- 70
2020-10-15 18:00:00 14.4 21 Norte 33 Norte 0 993.2 -1 72
2020-10-15 17:00:00 14.3 20 Norte 38 Norte 0 993.2 -- 73
2020-10-15 16:00:00 14 22 Norte 37 Norte 0 993.5 -- 77
2020-10-15 15:00:00 13.9 19 Norte 39 Norte 0 994.2 -- 76
2020-10-15 14:00:00 14.3 23 Norte 37 Norte 0 994.5 -- 71
2020-10-15 13:00:00 13.4 22 Norte 31 Norte 0 994.9 -- 78
2020-10-15 12:00:00 13.3 20 Nordeste 26 Norte 0 994.9 -- 78
2020-10-15 11:00:00 13.3 15 Nordeste 22 Nordeste 0 994.9 -- 79
2020-10-15 10:00:00 12.7 14 Nordeste 17 Nordeste 0 994.4 -- 84
2020-10-15 09:00:00 11.8 11 Norte 19 Norte 0 993.9 -- 89
2020-10-15 08:00:00 11.8 14 Norte 23 Norte 0 993.9 -- 92
2020-10-15 07:00:00 11.8 15 Norte 23 Noroeste 0 993.6 -- 88
2020-10-15 06:00:00 11.7 15 Norte 28 Norte 0 993.5 -- 80
2020-10-15 05:00:00 11.8 19 Nordeste 37 Nordeste 0.4 993.3 -- 78
2020-10-15 04:00:00 12.3 23 Nordeste 31 Nordeste 0 993.7 -- 78
2020-10-15 03:00:00 12.4 21 Norte 30 Norte 0 993.8 -- 78
2020-10-15 02:00:00 12.7 22 Norte 36 Norte 0 994 -- 79
2020-10-15 01:00:00 12.5 26 Norte 34 Nordeste 0 993.8 -- 77
2020-10-15 00:00:00 12.6 24 Nordeste 32 Nordeste 0 993.8 -- 78
2020-10-14 23:00:00 12.4 22 Nordeste 30 Nordeste 0 993.6 -- 79
2020-10-14 22:00:00 12.5 22 Nordeste 30 Nordeste 0 993.2 -- 78
2020-10-14 21:00:00 12.1 24 Nordeste 32 Nordeste 0 993 -- 75
2020-10-14 20:00:00 12.4 22 Nordeste 33 Norte 0 992.9 -- 75
2020-10-14 19:00:00 13.5 19 Nordeste 42 Norte 0 992.3 -- 70
2020-10-14 18:00:00 13.4 23 Norte 41 Norte 0 992 -- 78
2020-10-14 17:00:00 13.7 25 Norte 40 Norte 0 992 -- 71
2020-10-14 16:00:00 13.9 19 Norte 39 Nordeste 0 992 -- 79
2020-10-14 15:00:00 13 21 Norte 35 Nordeste 0 992.1 -- 90
2020-10-14 14:00:00 13 15 Norte 20 Norte 0 992.6 -- 95
2020-10-14 13:00:00 11.7 16 Norte 45 Nordeste 1 992.5 -- 95
2020-10-14 12:00:00 12.5 25 Norte 48 Norte 0 992.3 -- 84
2020-10-14 11:00:00 12.7 24 Norte 32 Norte 0 992.1 -- 79
2020-10-14 10:00:00 11.9 17 Norte 30 Nordeste 0 992.1 -- 85
2020-10-14 09:00:00 10.9 14 Norte 43 Nordeste 0 991.5 -- 90
2020-10-14 08:00:00 10.8 31 Norte 59 Norte 0 991.4 -- 84
2020-10-14 07:00:00 11.2 33 Nordeste 46 Norte 0.6 991.1 -- 86
2020-10-14 06:00:00 12 23 Norte 43 Norte 0 991.2 -- 80
2020-10-14 05:00:00 12.1 27 Norte 41 Norte 0 991.3 -- 82
2020-10-14 04:00:00 11.5 18 Norte 33 Norte 0 991.4 -- 90
2020-10-14 03:00:00 11.8 22 Norte 33 Norte 0 992 -- 90
2020-10-14 02:00:00 11.6 19 Norte 30 Nordeste 0 992.2 -- 90
2020-10-14 01:00:00 11.4 22 Nordeste 41 Norte 0 992.5 -- 87
2020-10-14 00:00:00 11.5 28 Norte 45 Norte 0 992.7 -- 87
2020-10-13 23:00:00 12.3 27 Norte 37 Norte 0 992.8 -- 84
2020-10-13 22:00:00 12.1 22 Norte 39 Nordeste 0 992.7 -- 83
2020-10-13 21:00:00 12 28 Nordeste 50 Norte 0 992.7 -- 79
2020-10-13 20:00:00 12 29 Norte 46 Norte 0 992.5 -- 87
2020-10-13 19:00:00 12.5 20 Norte 36 Norte 0 992.9 -- 83
2020-10-13 18:00:00 12.9 19 Norte 36 Norte 0 993 -- 82
2020-10-13 17:00:00 13.3 19 Norte 49 Norte 0 993.3 -- 81
2020-10-13 16:00:00 13.3 21 Norte 45 Norte 0 993.5 -- 81
2020-10-13 15:00:00 12.3 31 Norte 54 Norte 0 994.1 -- 90
2020-10-13 14:00:00 13 23 Norte 42 Norte 0 995 -- 82
2020-10-13 13:00:00 14 26 Norte 39 Norte 0 995 -- 74
2020-10-13 12:00:00 14 20 Nordeste 34 Nordeste 0 995.1 0.3 75
2020-10-13 11:00:00 13.2 26 Nordeste 36 Nordeste 0 995.2 -- 84
2020-10-13 10:00:00 12.8 23 Nordeste 39 Nordeste 0 995 0.1 90
2020-10-13 09:00:00 12.3 27 Nordeste 39 Nordeste 0 994.8 -- 98
2020-10-13 08:00:00 12.4 26 Nordeste 40 Nordeste 0 994.8 -- 98
2020-10-13 07:00:00 13 30 Nordeste 40 Nordeste 0 994.9 -- 98
2020-10-13 06:00:00 13.7 27 Nordeste 49 Nordeste 0 994.8 -1.2 98
2020-10-13 05:00:00 14.1 32 Norte 45 Norte 0.2 995 -- 98
2020-10-13 04:00:00 14.7 27 Nordeste 37 Norte 0.2 995.6 -- 98
2020-10-13 03:00:00 15 18 Noroeste 33 Norte 0 996 -1.7 98
2020-10-13 02:00:00 15.1 18 Noroeste 30 Noroeste 0.4 996.5 -- 98
2020-10-13 01:00:00 -- -- -- -- -- -- -- -- --
2020-10-13 00:00:00 14.8 17 Norte 27 Norte 0 997.7 -0.6 98
2020-10-12 23:00:00 14.8 16 Norte 38 Norte 0 997.9 -- 98
2020-10-12 22:00:00 15 26 Norte 35 Norte 0 998.1 -0.2 98
2020-10-12 21:00:00 14.9 20 Norte 38 Norte 0 998.3 -- 97
2020-10-12 20:00:00 14.7 31 Norte 42 Norte 0 998.4 -0.7 97
2020-10-12 19:00:00 14.7 25 Norte 35 Norte 0 998.3 -- 97
2020-10-12 18:00:00 15.1 18 Norte 24 Norte 0 998.4 -1.9 96
2020-10-12 17:00:00 14.7 10 Norte 16 Noroeste 0 999.1 -- 95
2020-10-12 16:00:00 14.4 9 Noroeste 21 Noroeste 0 999.5 -- 94
2020-10-12 15:00:00 14.3 10 Noroeste 17 Norte 0 1000.3 -1.4 94
2020-10-12 14:00:00 14.1 10 Norte 15 Norte 0 1001.1 -- 93
2020-10-12 13:00:00 13.9 10 Norte 17 Norte 0 1001.4 -0.2 89
2020-10-12 12:00:00 13.3 12 Norte 18 Norte 0 1001.7 -- 83
2020-10-12 11:00:00 12.8 12 Norte 18 Norte 0 1002 -- 79
2020-10-12 10:00:00 13.1 15 Este 23 Este 0 1001.6 -- 76
2020-10-12 09:00:00 12.3 19 Nordeste 28 Nordeste 0 1001.7 -- 75
2020-10-12 08:00:00 12.3 19 Nordeste 31 Nordeste 0 1001.6 -0.3 73
2020-10-12 07:00:00 12 20 Nordeste 31 Nordeste 0 1001.5 -- 78
2020-10-12 06:00:00 11.9 19 Nordeste 32 Nordeste 0 1001.6 -1.3 83
2020-10-12 05:00:00 12 21 Nordeste 31 Nordeste 0 1001.9 -- 83
2020-10-12 04:00:00 -- -- -- -- -- -- -- -- --
2020-10-12 03:00:00 12.3 18 Nordeste 26 Nordeste 0 1002.9 -- 81
2020-10-12 02:00:00 12.2 18 Nordeste 34 Nordeste 0 1003.4 -0.4 82
2020-10-12 01:00:00 12.3 24 Nordeste 39 Nordeste 0 1003.4 -- 80
2020-10-12 00:00:00 12.1 24 Nordeste 34 Nordeste 0 1003.6 -- 75
2020-10-11 23:00:00 12.1 23 Nordeste 42 Nordeste 0 1003.8 0.9 73
2020-10-11 22:00:00 12.1 23 Nordeste 40 Nordeste 0 1003.7 -- 75
2020-10-11 21:00:00 -- -- -- -- -- -- -- -- --
2020-10-11 20:00:00 -- -- -- -- -- -- -- -- --
2020-10-11 19:00:00 13.9 33 Nordeste 61 Nordeste 0 1002.5 -- 70
2020-10-11 18:00:00 14.5 24 Nordeste 55 Norte 0 1002.4 -0.5 64
2020-10-11 17:00:00 14.9 32 Nordeste 59 Nordeste 0 1002.4 -- 64
2020-10-11 16:00:00 15.1 32 Nordeste 56 Nordeste 0 1002.4 -- 64
2020-10-11 15:00:00 15.3 27 Nordeste 49 Nordeste 0 1002.9 -- 63
2020-10-11 14:00:00 15 23 Nordeste 48 Nordeste 0 1003.2 -- 65
2020-10-11 13:00:00 15 28 Nordeste 51 Nordeste 0 1003.5 -- 63
2020-10-11 12:00:00 14.4 29 Nordeste 48 Nordeste 0 1003.5 -- 62
2020-10-11 11:00:00 13.7 23 Nordeste 48 Este 0 1003.6 -- 66
2020-10-11 10:00:00 12.7 26 Nordeste 44 Nordeste 0 1003.3 -- 70
2020-10-11 09:00:00 12 23 Nordeste 49 Este 0 1002.8 -- 67
2020-10-11 08:00:00 11.7 18 Nordeste 37 Nordeste 0 1002.8 -- 74
2020-10-11 07:00:00 11.6 18 Nordeste 36 Este 0 1002.2 -- 76
2020-10-11 06:00:00 11.9 21 Nordeste 37 Nordeste 0 1002 -- 76
2020-10-11 05:00:00 11.9 19 Nordeste 38 Nordeste 0 1002 -- 79
2020-10-11 04:00:00 12.1 21 Nordeste 36 Nordeste 0 1002.3 -- 78
2020-10-11 03:00:00 12.1 21 Nordeste 39 Nordeste 0 1002.4 -- 77
2020-10-11 02:00:00 12.2 28 Nordeste 42 Nordeste 0 1002.6 -- 77
2020-10-11 01:00:00 12.5 31 Nordeste 54 Nordeste 0 1003 -- 75
2020-10-11 00:00:00 12.6 33 Nordeste 51 Nordeste 0 1002.7 -- 77
2020-10-10 23:00:00 12.6 33 Nordeste 55 Nordeste 0 1002.7 -- 78
2020-10-10 22:00:00 12.9 26 Nordeste 49 Nordeste 0 1002.5 -- 81
2020-10-10 21:00:00 13 28 Nordeste 60 Nordeste 0 1002.1 -- 81
2020-10-10 20:00:00 13.4 29 Nordeste 62 Nordeste 0 1001.7 -- 80
2020-10-10 19:00:00 14.7 35 Nordeste 58 Nordeste 0 1001.5 -- 72
2020-10-10 18:00:00 15.4 34 Nordeste 57 Nordeste 0 1000.8 -- 74
2020-10-10 17:00:00 16.1 28 Nordeste 58 Norte 0 1001 -- 67
2020-10-10 16:00:00 16.8 31 Nordeste 55 Nordeste 0 1001.2 -- 64
2020-10-10 15:00:00 16.8 28 Nordeste 56 Nordeste 0 1001.4 -- 61
2020-10-10 14:00:00 17 26 Nordeste 55 Nordeste 0 1002.1 -- 64
2020-10-10 13:00:00 16.2 28 Nordeste 66 Nordeste 0 1002.1 -- 66
2020-10-10 12:00:00 15.7 20 Nordeste 55 Nordeste 0 1002.4 -- 70
2020-10-10 11:00:00 14.3 26 Nordeste 51 Nordeste 0 1001.9 -- 74
2020-10-10 10:00:00 13.2 28 Nordeste 69 Nordeste 0 1001.2 -- 80
2020-10-10 09:00:00 12.5 36 Nordeste 67 Nordeste 0 1000.4 -- 81
2020-10-10 08:00:00 12.4 30 Nordeste 51 Nordeste 0 1000.1 -- 81
2020-10-10 07:00:00 12.4 28 Nordeste 51 Nordeste 0 999.8 -- 85
2020-10-10 06:00:00 12.7 31 Nordeste 55 Nordeste 0 999.6 -- 85
2020-10-10 05:00:00 12.6 31 Nordeste 56 Nordeste 0 999.6 -- 92
2020-10-10 04:00:00 13 28 Nordeste 47 Nordeste 0 999.6 -- 96
2020-10-10 03:00:00 13.4 33 Nordeste 51 Nordeste 0 999.6 -- 96
2020-10-10 02:00:00 14.4 28 Nordeste 52 Nordeste 0 999.5 -- 92
2020-10-10 01:00:00 14.4 30 Nordeste 51 Nordeste 0 999.4 -- 94
2020-10-10 00:00:00 14.8 24 Nordeste 49 Nordeste 0 999.2 -- 97
2020-10-09 23:00:00 14.9 35 Nordeste 46 Nordeste 0 998.4 -- 97
2020-10-09 22:00:00 15 26 Nordeste 43 Nordeste 0 998.3 -- 94
2020-10-09 21:00:00 15.2 30 Nordeste 45 Nordeste 0 998 -- 93
2020-10-09 20:00:00 15.4 27 Nordeste 37 Nordeste 0 997.6 -- 94
2020-10-09 19:00:00 15.5 27 Norte 38 Nordeste 0 997.4 -- 95
2020-10-09 18:00:00 16 17 Norte 24 Norte 0 997.2 -- 90
2020-10-09 17:00:00 17 9 Norte 14 Norte 0 997 -- 83
2020-10-09 16:00:00 18.2 9 Oeste 14 Sudoeste 0 996.9 -- 79
2020-10-09 15:00:00 18.4 6 Sur 16 Sudoeste 0 997.2 -- 77
2020-10-09 14:00:00 17.9 9 Sur 19 Sur 0 997.5 -- 85
2020-10-09 13:00:00 16.7 13 Sur 19 Sur 0 997.4 -- 90
2020-10-09 12:00:00 15.4 13 Sudoeste 19 Sudoeste 0 997.5 -- 91
2020-10-09 11:00:00 14.8 9 Sur 22 Sur 0 997.2 -- 91
2020-10-09 10:00:00 15 14 Sur 22 Sur 0 996.5 -- 95
2020-10-09 09:00:00 14.6 15 Sur 24 Sur 0 995.9 -- 96
2020-10-09 08:00:00 15.3 14 Sur 19 Sur 0 995.5 -- 96
2020-10-09 07:00:00 15.6 7 Sur 14 Sudoeste 0 995.3 -- 95
2020-10-09 06:00:00 15.7 11 Sudoeste 15 Sudoeste 0 995.4 -- 96
2020-10-09 05:00:00 15.8 8 Sudoeste 11 Sur 0 995.5 -- 96
2020-10-09 04:00:00 15.7 6 Sudoeste 13 Oeste 0 995.8 -- 96
2020-10-09 03:00:00 15.4 11 Oeste 12 Oeste 0 996.1 -- 95
2020-10-09 02:00:00 15.1 4 Sudoeste 7 Oeste 0 996.1 -- 95
2020-10-09 01:00:00 15.3 6 Oeste 7 Oeste 0 996.4 -- 95
2020-10-09 00:00:00 15.2 5 Noroeste 10 Norte 0 996.4 -- 95
2020-10-08 23:00:00 15.5 8 Norte 13 Norte 0 996.3 -- 96
2020-10-08 22:00:00 15.3 9 Norte 15 Norte 0 996.1 -- 95
2020-10-08 21:00:00 15.6 11 Norte 17 Norte 0 996.2 -- 95
2020-10-08 20:00:00 15.8 12 Norte 20 Norte 0 995.8 -- 92
2020-10-08 19:00:00 16.5 14 Norte 25 Norte 0 995.5 -- 89
2020-10-08 18:00:00 16.9 13 Norte 22 Norte 0 995.3 -- 77
2020-10-08 17:00:00 16.3 20 Norte 28 Norte 0 995.1 -- 77
2020-10-08 16:00:00 17.1 15 Norte 28 Norte 0 995 -- 71
2020-10-08 15:00:00 16.5 17 Norte 29 Norte 0 995.3 -- 71
2020-10-08 14:00:00 16.4 23 Norte 31 Norte 0 995.3 -- 75
2020-10-08 13:00:00 16.6 16 Norte 29 Nordeste 0 995.6 -- 76
2020-10-08 12:00:00 16.8 15 Nordeste 27 Nordeste 0 995.7 -- 74
2020-10-08 11:00:00 15.8 20 Nordeste 35 Nordeste 0 995.5 -- 75
2020-10-08 10:00:00 15.1 23 Nordeste 32 Nordeste 0 995.5 -- 75
2020-10-08 09:00:00 14.8 22 Nordeste 32 Nordeste 0 995.1 -- 76
2020-10-08 08:00:00 15 25 Nordeste 37 Nordeste 0 994.7 -- 75
2020-10-08 07:00:00 14.9 25 Nordeste 34 Nordeste 0 994.5 -- 76
2020-10-08 06:00:00 14.8 23 Nordeste 32 Nordeste 0 994.8 -- 77
2020-10-08 05:00:00 14.9 24 Nordeste 35 Nordeste 0 995.1 -- 77
2020-10-08 04:00:00 15 28 Nordeste 36 Nordeste 0 995.4 -- 78
2020-10-08 03:00:00 15 28 Nordeste 34 Nordeste 0 995.9 -- 77
2020-10-08 02:00:00 15.1 28 Nordeste 33 Nordeste 0 996.1 -- 79
2020-10-08 01:00:00 15.4 26 Nordeste 32 Nordeste 0 996.5 -- 89
2020-10-08 00:00:00 15.3 27 Nordeste 32 Nordeste 0 996.6 -- 80
2020-10-07 23:00:00 15.4 23 Nordeste 28 Norte 0 996.8 -- 75
2020-10-07 22:00:00 15.7 21 Norte 33 Norte 0 997 -- 77
2020-10-07 21:00:00 15.6 24 Norte 32 Norte 0 997.2 -- 87
2020-10-07 20:00:00 15.6 19 Norte 30 Norte 0 997.2 -- 86
2020-10-07 19:00:00 16.3 17 Norte 26 Norte 0 997.1 -- 90
2020-10-07 18:00:00 16.7 18 Norte 23 Norte 0 997.3 -- 95
2020-10-07 17:00:00 16.9 13 Norte 21 Norte 0 997.6 -- 96
2020-10-07 16:00:00 17 10 Norte 15 Norte 0 998 -- 97
2020-10-07 15:00:00 17.4 8 Noroeste 11 Noroeste 0 998.6 -- 97
2020-10-07 14:00:00 17.3 5 Noroeste 13 Noroeste 0 998.9 -- 97
2020-10-07 13:00:00 17.2 9 Noroeste 16 Noroeste 0 999 -- 97
2020-10-07 12:00:00 17.1 5 Noroeste 12 Noroeste 0 999 -- 97
2020-10-07 11:00:00 16.3 8 Noroeste 13 Norte 0 998.7 -- 97
2020-10-07 10:00:00 16.1 5 Noroeste 13 Norte 0 998.5 -- 98
2020-10-07 09:00:00 15.8 9 Norte 16 Norte 0 998 -- 98
2020-10-07 08:00:00 15.7 13 Norte 28 Norte 0 997.9 -- 98
2020-10-07 07:00:00 15.8 22 Norte 29 Noroeste 0 997.8 -- 98
2020-10-07 06:00:00 15.9 11 Noroeste 30 Norte 0 997.9 -- 98
2020-10-07 05:00:00 15.9 23 Norte 36 Noroeste 0.2 997.7 -- 98
2020-10-07 04:00:00 16.3 22 Noroeste 37 Noroeste 0 997.9 -- 98
2020-10-07 03:00:00 16.2 17 Noroeste 34 Noroeste 0 997.7 -- 98
2020-10-07 02:00:00 16.5 22 Noroeste 37 Noroeste 0 997.6 -- 98
2020-10-07 01:00:00 16.7 26 Oeste 37 Oeste 0 997.5 -- 97
2020-10-07 00:00:00 16.7 33 Oeste 40 Oeste 0.2 997.3 -- 97
2020-10-06 23:00:00 16.6 28 Oeste 42 Oeste 0 997.1 -- 97
2020-10-06 22:00:00 16.7 33 Oeste 42 Oeste 0 996.8 -- 97
2020-10-06 21:00:00 16.6 33 Oeste 41 Oeste 0.6 996.8 -- 97
2020-10-06 20:00:00 16.5 35 Oeste 42 Oeste 0 996.5 -- 97
2020-10-06 19:00:00 16.5 31 Oeste 42 Oeste 0 996.3 -- 97
2020-10-06 18:00:00 16.4 29 Oeste 40 Oeste 0 996.4 -- 97
2020-10-06 17:00:00 16.6 23 Oeste 41 Oeste 0 996.5 -- 97
2020-10-06 16:00:00 16.4 35 Oeste 43 Oeste 0 996.7 -- 97
2020-10-06 15:00:00 16.4 35 Oeste 43 Oeste 0 997.1 -- 97
2020-10-06 14:00:00 16.6 31 Oeste 43 Oeste 0 997.1 -- 97
2020-10-06 13:00:00 16.4 30 Oeste 39 Oeste 0 997 -- 97
2020-10-06 12:00:00 16.3 30 Oeste 37 Oeste 0.2 996.7 -- 98
2020-10-06 11:00:00 16.1 22 Oeste 36 Oeste 0 996 -- 98
2020-10-06 10:00:00 15.9 31 Oeste 40 Oeste 0 995.5 -- 98
2020-10-06 09:00:00 15.9 27 Oeste 39 Oeste 0 994.9 -- 98
2020-10-06 08:00:00 16.1 31 Oeste 40 Oeste 0 995 -- 97
2020-10-06 07:00:00 16.2 33 Oeste 40 Oeste 0.2 994.8 -- 97
2020-10-06 06:00:00 16.1 31 Oeste 37 Oeste 0.2 994.2 -- 97
2020-10-06 05:00:00 16 26 Oeste 35 Oeste 0 993.9 -- 97
2020-10-06 04:00:00 15.9 20 Oeste 28 Oeste 0.2 993.9 -- 97
2020-10-06 03:00:00 15.8 21 Oeste 26 Oeste 0 994 -- 97
2020-10-06 02:00:00 15.9 16 Oeste 24 Noroeste 0 994.2 -- 97
2020-10-06 01:00:00 15.8 15 Noroeste 35 Noroeste 0.2 994.1 -- 97
2020-10-06 00:00:00 15.9 26 Noroeste 36 Noroeste 0 993.7 -- 97
2020-10-05 23:00:00 16.2 19 Noroeste 41 Noroeste 0 993.5 -- 97
2020-10-05 22:00:00 16.6 26 Oeste 36 Oeste 0.2 992.9 -- 97
2020-10-05 21:00:00 16.5 26 Oeste 30 Oeste 0.2 992.6 -- 97
2020-10-05 20:00:00 16 22 Oeste 27 Oeste 0.4 992.3 -- 97
2020-10-05 19:00:00 16 20 Oeste 27 Oeste 0.2 992 -- 97
2020-10-05 18:00:00 14.6 23 Sudoeste 40 Sur 0.6 991.4 -- 97
2020-10-05 17:00:00 14.4 24 Sur 45 Sur 0.4 991.1 -- 97
2020-10-05 16:00:00 14.3 26 Sur 50 Sur 0.2 990.8 -- 96
2020-10-05 15:00:00 14.4 26 Sur 45 Sudoeste 0.2 990.7 -0.3 96
2020-10-05 14:00:00 14.1 25 Sur 39 Sur 0.2 991.1 0.5 96
2020-10-05 13:00:00 14 18 Sur 35 Sur 0.2 991 1 96
2020-10-05 12:00:00 14 18 Sur 28 Sudoeste 0.6 991 -- 95
2020-10-05 11:00:00 13.3 16 Sur 21 Sur 0.6 990.6 -- 95
2020-10-05 10:00:00 13.3 8 Sur 17 Sur 0.8 990 -- 94
2020-10-05 09:00:00 13.4 12 Sudoeste 22 Sudoeste 0 989.6 -- 92
2020-10-05 08:00:00 14 14 Oeste 22 Oeste 0 989.5 -- 82
2020-10-05 07:00:00 14.1 13 Norte 30 Noroeste 0 989.5 -- 81
2020-10-05 06:00:00 14.2 18 Noroeste 30 Noroeste 0 989.1 -- 80
2020-10-05 05:00:00 13.8 16 Noroeste 35 Noroeste 0 988.7 -- 83
2020-10-05 04:00:00 13.8 20 Noroeste 30 Noroeste 0 988.5 -- 84
2020-10-05 03:00:00 13.4 17 Noroeste 32 Noroeste 0 988.4 -- 85
2020-10-05 02:00:00 13.4 19 Noroeste 45 Norte 0 988.5 -- 87
2020-10-05 01:00:00 13.8 18 Noroeste 34 Noroeste 0 988.5 -- 81
2020-10-05 00:00:00 13.5 14 Noroeste 35 Noroeste 0.2 988.2 -- 81
2020-10-04 23:00:00 13.2 20 Noroeste 35 Noroeste 0 988.2 -- 90
2020-10-04 22:00:00 12.8 16 Noroeste 49 Noroeste 0 987.7 -- 91
2020-10-04 21:00:00 13.4 19 Noroeste 35 Norte 0 987.2 -- 83
2020-10-04 20:00:00 13.9 18 Noroeste 33 Noroeste 0 987 -- 79
2020-10-04 19:00:00 14.5 14 Noroeste 40 Noroeste 0 986.3 -- 74
2020-10-04 18:00:00 14.4 18 Noroeste 37 Norte 0 986.1 -- 77
2020-10-04 17:00:00 14 15 Noroeste 46 Norte 0 985.9 -- 83
2020-10-04 16:00:00 13.7 21 Noroeste 49 Norte 0 985.6 -- 86
2020-10-04 15:00:00 13.6 39 Norte 56 Norte 0 985.5 -- 80
2020-10-04 14:00:00 13.8 19 Noroeste 48 Noroeste 0 985.4 -- 82
2020-10-04 13:00:00 13.2 15 Noroeste 54 Norte 0.2 985.4 -- 88
2020-10-04 12:00:00 14 19 Noroeste 50 Noroeste 0 984.7 -- 78
2020-10-04 11:00:00 13.1 22 Noroeste 56 Noroeste 0 984.4 -- 83
2020-10-04 10:00:00 13.6 17 Noroeste 48 Norte 0 983.8 -- 86
2020-10-04 09:00:00 12.9 28 Noroeste 51 Noroeste 0 983.4 -- 89
2020-10-04 08:00:00 13.8 21 Noroeste 53 Noroeste 0 982.8 -- 75
2020-10-04 07:00:00 13.7 23 Noroeste 56 Noroeste 0 982.5 -- 77
2020-10-04 06:00:00 13.5 21 Noroeste 53 Noroeste 0 982.7 -- 74
2020-10-04 05:00:00 13.6 18 Noroeste 39 Noroeste 0 982.3 -- 78
2020-10-04 04:00:00 13.6 16 Noroeste 51 Norte 0 982.2 -- 78
2020-10-04 03:00:00 13.4 17 Noroeste 37 Noroeste 0 982.4 -- 91
2020-10-04 02:00:00 13.3 24 Noroeste 37 Noroeste 0.2 982.2 -- 96
2020-10-04 01:00:00 13.1 23 Noroeste 54 Oeste 0.6 982.4 -- 96
2020-10-04 00:00:00 13.8 39 Oeste 52 Oeste 0.6 982.3 -- 94
2020-10-03 23:00:00 14 25 Sudoeste 30 Sudoeste 0 982.8 -- 88
2020-10-03 22:00:00 13.9 19 Sudoeste 24 Sudoeste 0 983.2 -- 84
2020-10-03 21:00:00 13.4 18 Sudoeste 32 Oeste 0 983 -- 81
2020-10-03 20:00:00 13.9 28 Oeste 36 Oeste 0 983.2 -- 78
2020-10-03 19:00:00 15.3 19 Sudoeste 28 Oeste 0 983.2 -- 77
2020-10-03 18:00:00 16.3 24 Oeste 44 Oeste 0 983.2 -- 67
2020-10-03 17:00:00 13.8 35 Oeste 50 Oeste 0 983.2 -- 82
2020-10-03 16:00:00 14.1 22 Noroeste 44 Noroeste 0 983.8 -- 76
2020-10-03 15:00:00 16 10 Noroeste 21 Oeste 0 984.1 -- 70
2020-10-03 14:00:00 14.9 8 Noroeste 28 Norte 0 984.2 -- 74
2020-10-03 13:00:00 14.1 13 Noroeste 25 Noroeste 0 984.3 -- 69
2020-10-03 12:00:00 13.5 9 Noroeste 20 Noroeste 0 984.3 -- 79
2020-10-03 11:00:00 13.8 9 Norte 24 Noroeste 0 983.9 -- 71
2020-10-03 10:00:00 13.2 19 Norte 38 Norte 0 983.4 -- 73
2020-10-03 09:00:00 12.7 20 Norte 39 Norte 0 982.9 -- 79
2020-10-03 08:00:00 12.6 26 Norte 42 Norte 0 982.4 -- 78
2020-10-03 07:00:00 12.2 24 Norte 46 Norte 0 982.4 -- 81
2020-10-03 06:00:00 11.9 18 Noroeste 48 Norte 0 981.8 -- 83
2020-10-03 05:00:00 12.4 32 Norte 60 Norte 0 981.8 -- 75
2020-10-03 04:00:00 11.8 23 Norte 55 Norte 0 981.8 -- 83
2020-10-03 03:00:00 13.1 24 Noroeste 58 Norte 0 981.5 -- 77
2020-10-03 02:00:00 13 35 Norte 67 Norte 0 981.4 -- 76
2020-10-03 01:00:00 12.1 42 Norte 85 Norte 0 981.3 -- 70
2020-10-03 00:00:00 13.1 30 Noroeste 64 Noroeste 0 980.8 -- 75
2020-10-02 23:00:00 13.1 30 Norte 71 Norte 0 980.5 -- 78
2020-10-02 22:00:00 13.2 27 Norte 52 Noroeste 0 979.9 -- 77
2020-10-02 21:00:00 12.8 42 Norte 72 Norte 0 979.5 -- 72
2020-10-02 20:00:00 13.1 48 Norte 73 Norte 0 978.4 -- 72
2020-10-02 19:00:00 13.4 43 Norte 69 Norte 0 977.6 -- 72
2020-10-02 18:00:00 13.6 37 Norte 58 Norte 0 977.2 -- 77
2020-10-02 17:00:00 12 44 Norte 77 Norte 0 976.9 -- 78
2020-10-02 16:00:00 13.9 27 Noroeste 77 Norte 0 976.4 -- 70
2020-10-02 15:00:00 13.4 24 Noroeste 66 Norte 0 976.4 -- 70
2020-10-02 14:00:00 12 24 Noroeste 89 Norte 0 976.7 -- 76
2020-10-02 13:00:00 11.1 41 Noroeste 86 Norte 0.2 976.3 -- 79
2020-10-02 12:00:00 12.8 26 Noroeste 80 Norte 0 975.6 -- 70
2020-10-02 11:00:00 12 26 Noroeste 81 Norte 0 975.3 -- 70
2020-10-02 10:00:00 11.9 38 Norte 73 Norte 0 975 -- 78
2020-10-02 09:00:00 11.3 48 Norte 78 Norte 0.2 974.4 -- 77
2020-10-02 08:00:00 10.6 25 Noroeste 75 Norte 0.2 974.3 -- 88
2020-10-02 07:00:00 11 41 Noroeste 84 Norte 0 973.8 -- 87
2020-10-02 06:00:00 12.2 44 Noroeste 80 Norte 0 972.9 -- 89
2020-10-02 05:00:00 13 36 Noroeste 74 Noroeste 0 973.4 -- 93
2020-10-02 04:00:00 14.2 26 Noroeste 78 Norte 0 973.7 -- 93
2020-10-02 03:00:00 14.7 36 Noroeste 75 Noroeste 0 973.8 -- 94
2020-10-02 02:00:00 14.9 33 Noroeste 76 Noroeste 0 974.4 -- 95
2020-10-02 01:00:00 15.8 48 Noroeste 76 Oeste 0 974.8 -- 95
2020-10-02 00:00:00 15.6 43 Noroeste 91 Oeste 1.8 975.8 -- 97
2020-10-01 23:00:00 16.3 66 Oeste 80 Oeste 0.2 976.6 -- 97
2020-10-01 22:00:00 16 52 Oeste 82 Oeste 1.8 977.6 -- 96
2020-10-01 21:00:00 15.4 58 Sudoeste 75 Sudoeste 1.2 978.6 -- 96
2020-10-01 20:00:00 14.8 57 Sudoeste 73 Sudoeste 0.6 980 -- 95
2020-10-01 19:00:00 14.6 51 Sudoeste 70 Sudoeste 0.2 981.2 -- 93
2020-10-01 18:00:00 15.1 46 Sudoeste 58 Sudoeste 0 982.6 -- 83
2020-10-01 17:00:00 15.4 41 Sudoeste 52 Sudoeste 0 983.7 -- 85
2020-10-01 16:00:00 16.3 33 Sudoeste 41 Sudoeste 0 985.1 -- 76
2020-10-01 15:00:00 18.2 27 Sudoeste 33 Sudoeste 0 985.7 -- 75
2020-10-01 14:00:00 18.2 24 Sudoeste 31 Oeste 0 986.8 -- 74
2020-10-01 13:00:00 17 19 Sudoeste 27 Noroeste 0 986.9 -- 79
2020-10-01 12:00:00 14.9 20 Oeste 31 Oeste 0.2 987.7 -- 87
2020-10-01 11:00:00 14.4 14 Sudoeste 21 Oeste 0 987.6 -- 87
2020-10-01 10:00:00 13.9 12 Noroeste 25 Norte 0 987.7 -- 81
2020-10-01 09:00:00 13.6 18 Noroeste 27 Noroeste 0 987.5 -- 78
2020-10-01 08:00:00 13.2 19 Norte 49 Noroeste 0 987 -- 82
2020-10-01 07:00:00 13.5 17 Noroeste 33 Norte 0 987.5 -- 86
2020-10-01 06:00:00 13.2 25 Norte 51 Norte 0 987.2 -- 92
2020-10-01 05:00:00 13.9 12 Noroeste 42 Noroeste 0 987.4 -- 90
2020-10-01 04:00:00 14.2 16 Noroeste 43 Noroeste 0 987.6 -- 88
2020-10-01 03:00:00 14.5 18 Noroeste 48 Noroeste 0 987.7 -- 91
2020-10-01 02:00:00 15.2 28 Noroeste 44 Noroeste 0 987.4 -- 94
2020-10-01 01:00:00 14.9 26 Noroeste 46 Noroeste 0 987.4 -- 96
2020-10-01 00:00:00 15.7 23 Noroeste 45 Oeste 0 987.6 -- 96
2020-09-30 23:00:00 15.5 36 Oeste 70 Oeste 1 987.6 -- 96
2020-09-30 22:00:00 15.5 40 Sudoeste 51 Sudoeste 0 987.2 -- 95
2020-09-30 21:00:00 15.5 41 Sudoeste 50 Sudoeste 0 987.4 -- 91
2020-09-30 20:00:00 15.5 38 Sudoeste 46 Sudoeste 0 987.7 -- 88
2020-09-30 19:00:00 15.9 33 Sudoeste 39 Sudoeste 0 988.4 -- 83
2020-09-30 18:00:00 16 29 Sudoeste 36 Sudoeste 0 988.7 -- 83
2020-09-30 17:00:00 16.2 28 Sudoeste 35 Sudoeste 0 989.1 -- 78
2020-09-30 16:00:00 16.7 25 Sudoeste 30 Sudoeste 0 989.8 -- 77
2020-09-30 15:00:00 17.5 23 Sudoeste 29 Sudoeste 0 989.9 -- 75
2020-09-30 14:00:00 19.2 18 Sudoeste 24 Sudoeste 0 990.2 -- 72
2020-09-30 13:00:00 17.5 12 Sudoeste 17 Sudoeste 0 990.8 -- 73
2020-09-30 12:00:00 15.8 12 Oeste 19 Oeste 0 991 -- 68
2020-09-30 11:00:00 15.3 8 Oeste 19 Noroeste 0 991.1 -- 73
2020-09-30 10:00:00 14.3 12 Noroeste 21 Norte 0 990.9 -- 76
2020-09-30 09:00:00 14.1 17 Norte 23 Norte 0 990.7 -- 80
2020-09-30 08:00:00 13.9 17 Norte 24 Norte 0 990.6 -- 87
2020-09-30 07:00:00 14.2 14 Norte 21 Norte 0 990.4 -- 91
2020-09-30 06:00:00 14.4 13 Norte 20 Noroeste 0 990.4 -- 90
2020-09-30 05:00:00 14.8 10 Norte 15 Norte 0 990.6 -- 89
2020-09-30 04:00:00 14.7 12 Norte 19 Norte 0 991 -- 88
2020-09-30 03:00:00 15 16 Norte 28 Norte 0 991.1 -- 87
2020-09-30 02:00:00 14.7 20 Nordeste 29 Nordeste 0 991.3 -- 87
2020-09-30 01:00:00 14.9 23 Nordeste 33 Nordeste 0 991.3 -- 86
2020-09-30 00:00:00 14.9 28 Nordeste 35 Nordeste 0 991.5 -- 83